Cosmos 1484 Rocket - Orbit

View from above orbital plane
View from above orbital plane
View from above satellite
View from above satellite

Ground track
Ground track

The orbit data is extracted from the following two-line orbital elements,

1 14208U 83075B   13144.45633668  .00002083  00000-0  14765-3 0  7494
2 14208 097.4751 189.3153 0044488 188.5153 171.5324 15.05071939623700
Epoch (UTC): 24 May 2013 10:57:07
Eccentricity: 0.0044488
inclination: 97.4751°
perigee height: 520 km
apogee height: 582 km
right ascension of ascending node: 189.3153°
argument of perigee: 188.5153°
revolutions per day: 15.05071939
mean anomaly at epoch: 171.5324°
orbit number at epoch: 62370

The dashed part of the orbit path shows where the satellite is in the earth's shadow,  

Developed and maintained by Chris Peat, Heavens-Above GmbH. Please read the updated FAQ before sending e-mail. Imprint. DLR